This demonstration page uses our WeatherBlox Daily Observations layout. Learn more.

Left ArrowRight Arrow

Hourly Observations for June 6, 2017

Temp ( °F °C ) Dew Point ( °F °C ) Humidity (%) Winds ( mph kmh ) Pressure ( in mb ) Visibility ( mi km ) Precip ( " mm )
12:52 am 00:52 Clear 67 19.4 64 17.8 91 91 N 3 6 29.84 1010 10 16 0.00 0.00
1:52 am 01:52 Clear 64 17.8 61 16.1 90 90 Calm 29.84 1011 10 16 0.00 0.00
2:52 am 02:52 Clear 65 18.3 62 16.7 90 90 Calm 29.83 1010 10 16 0.00 0.00
3:52 am 03:52 Clear 63 17.2 61 16.1 93 93 Calm 29.85 1011 8 13 0.00 0.00
4:52 am 04:52 Clear with Mist and Fog 62 16.7 60 15.6 93 93 NNW 5 7 29.85 1011 5 8 0.00 0.00
4:54 am 04:54 Mostly Clear with Mist and Fog 61 16.1 60 15.6 97 97 NNW 5 7 29.85 1011 3 4 0.00 0.00
5:08 am 05:08 Clear 62 16.7 61 16.1 96 96 N 6 9 29.85 1011 10 16 0.00 0.00
5:52 am 05:52 Clear 65 18.3 62 16.7 90 90 NE 9 15 29.87 1011 10 16 0.00 0.00
6:52 am 06:52 Sunny 66 18.9 62 16.7 87 87 NE 8 13 29.88 1012 10 16 0.00 0.00
7:52 am 07:52 Sunny 68 20 60 15.6 76 76 ENE 13 20 29.90 1013 10 16 0.00 0.00
8:52 am 08:52 Sunny 70 21.1 60 15.6 71 71 NE 13 20 29.91 1013 10 16 0.00 0.00
9:52 am 09:52 Sunny 72 22.2 61 16.1 68 68 NNE 12 19 29.92 1013 10 16 0.00 0.00
10:52 am 10:52 Sunny 75 23.9 62 16.7 64 64 NNE 13 20 29.92 1013 10 16 0.00 0.00
11:52 am 11:52 Sunny 78 25.6 60 15.6 54 54 NNE 14 22 29.92 1013 10 16 0.00 0.00
12:52 pm 12:52 Sunny 81 27.2 60 15.6 49 49 NE 15 24 29.92 1013 10 16 0.00 0.00
1:52 pm 13:52 Sunny 81 27.2 61 16.1 51 51 N 16 26 29.93 1013 10 16 0.00 0.00
2:52 pm 14:52 Sunny 81 27.2 61 16.1 51 51 N 18 30 29.92 1013 10 16 0.00 0.00
3:52 pm 15:52 Sunny 80 26.7 60 15.6 51 51 NNE 13 20 29.91 1013 10 16 0.00 0.00
4:52 pm 16:52 Sunny 80 26.7 55 12.8 42 42 NNE 14 22 29.91 1013 10 16 0.00 0.00
5:52 pm 17:52 Sunny 79 26.1 51 10.6 38 38 NE 16 26 29.91 1013 10 16 0.00 0.00
6:52 pm 18:52 Sunny 76 24.4 50 10 40 40 NNE 13 20 29.91 1013 10 16 0.00 0.00
7:52 pm 19:52 Sunny 73 22.8 49 9.4 43 43 ENE 8 13 29.92 1013 10 16 0.00 0.00
8:52 pm 20:52 Clear 70 21.1 48 8.9 46 46 NE 7 11 29.93 1014 10 16 0.00 0.00
9:52 pm 21:52 Clear 68 20 48 8.9 49 49 NE 5 7 29.96 1015 10 16 0.00 0.00
10:52 pm 22:52 Clear 61 16.1 51 10.6 70 70 E 3 6 29.98 1015 10 16 0.00 0.00
11:52 pm 23:52 Clear 64 17.8 49 9.4 58 58 ENE 5 7 29.98 1015 10 16 0.00 0.00

Powered by AerisWeather